Ahmedabad, India

10:02 AM IST on November 20, 2017 (GMT +0530)
Ahmedabad

Weather History for VAAH - November, 2012

Change the Weather History Date:

Thursday, November 8, 2012

  Actual Average Record
Temperature  
Mean Temperature 75 °F -  
Max Temperature 91 °F 86 °F 96 °F (2011)
Min Temperature 59 °F 59 °F 58 °F (2016)
Cooling Degree Days 10    
Growing Degree Days 25 (Base 50)    
Moisture  
Dew Point 58 °F    
Average Humidity 55    
Maximum Humidity 69    
Minimum Humidity 18    
Precipitation  
Precipitation 0.00 in 0.02 in - ()
Sea Level Pressure  
Sea Level Pressure 29.85 in    
Wind  
Wind Speed 0 mph ()    
Max Wind Speed 4 mph    
Max Gust Speed -    
Visibility 2.2 miles    
Events      
Averages and records for this station are not official NWS values.
T = Trace of Precipitation, MM = Missing Value Source: Averaged Metar Reports

Daily Weather History Graph

Daily Weather History Graph

Search for Another Location

Airport or City:

Trip Planner

Search our weather history database for the weather conditions in past years. The results will help you decide how hot, cold, wet, or windy it might be!

Date:

Astronomy

Nov. 08, 2012 Rise Set
Actual Time 6:48 AM IST 5:57 PM IST
Civil Twilight 6:25 AM IST 6:20 PM IST
Nautical Twilight 5:58 AM IST 6:47 PM IST
Astronomical Twilight 5:31 AM IST 7:14 PM IST
Moon 12:58 AM IST (11/8) 1:45 PM IST (11/8)
Length of Visible Light 11h 55m
Length of Day
11h 08m
Last Quarter, 37% of the Moon is Illuminated
Nov 8
Last Quarter
Nov 14
New
Nov 20
First Quarter
Nov 28
Full
Dec 6
Last Quarter

Hourly Weather History & Observations

Time (IST) Temp. Heat Index Dew Point Humidity Pressure Visibility Wind Dir Wind Speed Gust Speed Precip Events Conditions
12:10 AM 66.2 °F - 53.6 °F 64% 29.86 in 2.5 mi Calm Calm - N/A   Haze
12:40 AM 66.2 °F - 51.8 °F 60% 29.86 in 2.5 mi Calm Calm - N/A   Haze
1:10 AM 64.4 °F - 51.8 °F 64% 29.86 in 2.5 mi Calm Calm - N/A   Haze
1:40 AM 64.4 °F - 51.8 °F 64% 29.83 in 2.5 mi Calm Calm - N/A   Haze
2:10 AM 64.4 °F - 50.0 °F 59% 29.83 in 2.5 mi Calm Calm - N/A   Haze
2:30 AM 63 °F - 55 °F 67% 29.86 in 1 mi Calm Calm - -   Haze
2:40 AM 62.6 °F - 50.0 °F 63% 29.83 in 2.5 mi Calm Calm - N/A   Haze
3:10 AM 64.4 °F - 50.0 °F 59% 29.83 in 2.5 mi Calm Calm - N/A   Haze
3:40 AM 64.4 °F - 50.0 °F 59% 29.83 in 2.5 mi Calm Calm - N/A   Haze
4:10 AM 64.4 °F - 50.0 °F 59% 29.83 in 2.5 mi Calm Calm - N/A   Haze
4:40 AM 66.2 °F - 51.8 °F 60% 29.83 in 2.5 mi Calm Calm - N/A   Haze
5:10 AM 64.4 °F - 50.0 °F 59% 29.83 in 2.5 mi Calm Calm - N/A   Haze
5:30 AM 63 °F - 53 °F 62% 29.85 in 1 mi Calm Calm - -   Haze
5:40 AM 64.4 °F - 48.2 °F 56% 29.83 in 2.5 mi Calm Calm - N/A   Smoke
6:10 AM 62.6 °F - 48.2 °F 59% 29.83 in 2.2 mi Calm Calm - N/A   Smoke
7:10 AM 60.8 °F - 44.6 °F 55% 29.89 in 1.2 mi Calm Calm - N/A   Smoke
8:10 AM 64.4 °F - 50.0 °F 59% 29.92 in 0.9 mi Calm Calm - N/A   Smoke
8:30 AM 70 °F - 54 °F 46% 29.92 in 1 mi SE 3.5 mph - -   Haze
8:40 AM 68.0 °F - 51.8 °F 56% 29.92 in 0.9 mi Calm Calm - N/A   Smoke
9:40 AM 77.0 °F - 59.0 °F 54% 29.92 in 1.2 mi Calm Calm - N/A   Smoke
10:10 AM 82.4 °F 83.9 °F 64.4 °F 54% 29.92 in 1.4 mi Calm Calm - N/A   Smoke
10:40 AM 82.4 °F 83.9 °F 64.4 °F 54% 29.92 in 1.6 mi Calm Calm - N/A   Smoke
11:30 AM 85 °F - 54 °F 25% 29.92 in 2 mi East 2.3 mph - -  
11:40 AM 87.8 °F 91.4 °F 68.0 °F 52% 29.86 in 2.2 mi Calm Calm - N/A   Smoke
12:10 PM 87.8 °F 91.4 °F 68.0 °F 52% 29.86 in 2.2 mi Calm Calm - N/A   Smoke
1:40 PM 91.4 °F 96.8 °F 69.8 °F 49% 29.80 in 3.1 mi Variable 3.5 mph - N/A   Smoke
2:10 PM 91.4 °F 98.4 °F 71.6 °F 52% 29.80 in 3.1 mi Variable 3.5 mph - N/A   Smoke
2:30 PM 89 °F - 51 °F 18% 29.80 in 2 mi NNW 3.5 mph - -  
2:40 PM 91.4 °F 96.8 °F 69.8 °F 49% 29.80 in 3.1 mi Variable 3.5 mph - N/A   Smoke
3:10 PM 91.4 °F 96.8 °F 69.8 °F 49% 29.77 in 3.1 mi Calm Calm - N/A   Smoke
3:40 PM 91.4 °F 96.8 °F 69.8 °F 49% 29.77 in 3.1 mi Calm Calm - N/A   Smoke
4:10 PM 93.2 °F 100.5 °F 71.6 °F 49% 29.77 in 3.1 mi Variable 3.5 mph - N/A   Smoke
4:40 PM 91.4 °F 98.4 °F 71.6 °F 52% 29.77 in 3.1 mi Variable 2.3 mph - N/A   Smoke
5:30 PM 83 °F - 62 °F 38% 29.82 in 2 mi NNE 2.3 mph - -  
5:40 PM 86.0 °F 89.4 °F 68.0 °F 55% 29.80 in 2.5 mi ENE 3.5 mph - N/A   Smoke
6:40 PM 78.8 °F - 62.6 °F 57% 29.80 in 1.9 mi Calm Calm - N/A   Smoke
7:10 PM 77.0 °F - 59.0 °F 54% 29.83 in 1.9 mi Calm Calm - N/A   Smoke
8:10 PM 73.4 °F - 59.0 °F 61% 29.83 in 2.2 mi Calm Calm - N/A   Smoke
8:40 PM 73.4 °F - 59.0 °F 61% 29.86 in 2.2 mi Calm Calm - N/A   Smoke
9:10 PM 71.6 °F - 57.2 °F 60% 29.86 in 2.2 mi Calm Calm - N/A   Smoke
9:40 PM 71.6 °F - 57.2 °F 60% 29.86 in 2.2 mi Calm Calm - N/A   Smoke
10:10 PM 69.8 °F - 55.4 °F 60% 29.86 in 2.2 mi Calm Calm - N/A   Smoke
10:40 PM 69.8 °F - 55.4 °F 60% 29.86 in 2.2 mi Variable 2.3 mph - N/A   Smoke
11:10 PM 69.8 °F - 55.4 °F 60% 29.86 in 2.2 mi Calm Calm - N/A   Smoke
11:30 PM 66 °F - 58 °F 69% 29.89 in 2 mi Calm Calm - -   Haze
11:40 PM 68.0 °F - 53.6 °F 60% 29.86 in 2.2 mi Calm Calm - N/A   Haze